Weather History for St. Joseph, MO

Change the Weather History Date:

Wednesday, July 9, 2014

  Actual Average Record
Temperature  
Mean Temperature 72 °F 77 °F  
Max Temperature 83 °F 87 °F 102 °F (1980)
Min Temperature 60 °F 67 °F 57 °F (1953)
Degree Days  
Heating Degree Days 0 0  
Month to date heating degree days 4 0  
Since 1 June heating degree days 5 8  
Since 1 July heating degree days 4 0  
Cooling Degree Days 7 12  
Month to date cooling degree days 71 106  
Year to date cooling degree days 511 486  
Since 1 June cooling degree days 350 373  
Growing Degree Days 21 (Base 50)    
Moisture  
Dew Point 61 °F    
Average Humidity 72    
Maximum Humidity 100    
Minimum Humidity 43    
Precipitation  
Precipitation T in 0.14 in 1.67 in (1950)
Month to date precipitation 3.77 1.31  
Year to date precipitation 19.45 18.44  
Sea Level Pressure  
Sea Level Pressure 30.04 in    
Wind  
Wind Speed 3 mph (NE)    
Max Wind Speed 7 mph    
Max Gust Speed 10 mph    
Visibility 9 miles    
Events      
T = Trace of Precipitation, MM = Missing Value Source: NWS Daily Summary

Daily Weather History Graph

Daily Weather History Graph

Search for Another Location

Airport:

Trip Planner

Search our weather history database for the weather conditions in past years. The results will help you decide how hot, cold, wet, or windy it might be!

Date:

Astronomy

Jul. 09, 2014 Rise Set
Actual Time 5:59 AM CDT 8:49 PM CDT
Civil Twilight 5:27 AM CDT 9:21 PM CDT
Nautical Twilight 4:47 AM CDT 10:01 PM CDT
Astronomical Twilight 4:00 AM CDT 10:48 PM CDT
Moon 6:01 PM CDT (7/9) 3:18 AM CDT (7/9)
Length of Visible Light 15h 53m
Length of Day
14h 49m
Waxing Gibbous, 89% of the Moon is Illuminated
Jul 9
Waxing Gibbous
Jul 12
Full
Jul 18
Last Quarter
Jul 26
New
Aug 3
First Quarter

Hourly Weather History & Observations

Time (CDT) Temp. Heat Index Dew Point Humidity Pressure Visibility Wind Dir Wind Speed Gust Speed Precip Events Conditions
1:53 AM 64.0 °F - 63.0 °F 96% 30.00 in 10.0 mi South 3.5 mph - N/A   Clear
2:53 AM 64.0 °F - 62.1 °F 93% 30.00 in 10.0 mi SSE 4.6 mph - N/A   Clear
3:53 AM 63.0 °F - 61.0 °F 93% 30.01 in 10.0 mi Calm Calm - N/A   Clear
4:53 AM 62.1 °F - 61.0 °F 96% 30.01 in 10.0 mi Calm Calm - N/A   Clear
5:53 AM 60.1 °F - 59.0 °F 96% 30.02 in 10.0 mi WNW 3.5 mph - N/A   Scattered Clouds
6:29 AM 60.1 °F - 59.0 °F 96% 30.04 in 10.0 mi Calm Calm - N/A   Partly Cloudy
6:48 AM 60.8 °F - 59.0 °F 94% 30.04 in 5.0 mi Calm Calm - N/A   Mostly Cloudy
6:53 AM 61.0 °F - 60.1 °F 97% 30.03 in 3.0 mi Calm Calm - N/A   Mostly Cloudy
7:03 AM 61.0 °F - 60.1 °F 97% 30.05 in 4.0 mi Calm Calm - N/A   Scattered Clouds
7:53 AM 64.9 °F - 62.1 °F 90% 30.04 in 10.0 mi Calm Calm - N/A   Partly Cloudy
8:53 AM 68.0 °F - 63.0 °F 84% 30.07 in 10.0 mi NNW 3.5 mph - N/A   Mostly Cloudy
9:04 AM 69.1 °F - 64.0 °F 84% 30.09 in 10.0 mi North 4.6 mph - N/A   Scattered Clouds
9:53 AM 72.0 °F - 64.0 °F 76% 30.08 in 10.0 mi Calm Calm - N/A   Clear
10:10 AM 73.0 °F - 64.0 °F 73% 30.09 in 10.0 mi Calm Calm - N/A   Partly Cloudy
10:53 AM 75.0 °F - 64.9 °F 71% 30.06 in 10.0 mi NW 3.5 mph - N/A   Clear
11:53 AM 78.1 °F - 61.0 °F 56% 30.07 in 10.0 mi Variable 4.6 mph - N/A   Clear
12:17 PM 80.1 °F 81.2 °F 62.1 °F 54% 30.08 in 10.0 mi North 3.5 mph - N/A   Partly Cloudy
12:53 PM 81.0 °F 81.9 °F 62.1 °F 52% 30.06 in 10.0 mi Variable 4.6 mph - N/A   Clear
1:53 PM 82.0 °F 82.4 °F 60.1 °F 47% 30.05 in 10.0 mi NE 3.5 mph - N/A   Clear
2:53 PM 82.0 °F 82.7 °F 61.0 °F 49% 30.04 in 10.0 mi North 5.8 mph - N/A   Clear
3:53 PM 82.9 °F 82.6 °F 57.9 °F 42% 30.04 in 9.0 mi Calm Calm - N/A   Clear
4:53 PM 82.9 °F 83.2 °F 60.1 °F 46% 30.03 in 8.0 mi Variable 3.5 mph - N/A   Clear
5:53 PM 82.0 °F 82.7 °F 61.0 °F 49% 30.00 in 8.0 mi ENE 3.5 mph - N/A   Clear
6:13 PM 82.0 °F 82.7 °F 61.0 °F 49% 30.02 in 8.0 mi Calm Calm - N/A   Partly Cloudy
6:53 PM 81.0 °F 81.0 °F 57.0 °F 44% 29.99 in 8.0 mi Calm Calm - N/A   Clear
7:35 PM 80.1 °F 81.5 °F 63.0 °F 56% 30.01 in 8.0 mi ENE 5.8 mph - N/A   Partly Cloudy
7:53 PM 78.1 °F - 63.0 °F 60% 30.00 in 8.0 mi ENE 6.9 mph - N/A   Clear
8:53 PM 75.0 °F - 60.1 °F 60% 30.01 in 8.0 mi East 4.6 mph - N/A   Clear
9:53 PM 73.9 °F - 61.0 °F 64% 30.02 in 9.0 mi ESE 5.8 mph - 0.00 in   Partly Cloudy
10:53 PM 72.0 °F - 62.1 °F 71% 30.04 in 8.0 mi SE 5.8 mph - N/A   Scattered Clouds
11:53 PM 71.1 °F - 62.1 °F 73% 30.04 in 8.0 mi South 3.5 mph - N/A   Clear